Volver al catálogo

CZ-6A DEB

ActivoPO
NORAD 61336·DEBRIS·🇨🇳 China

Lanzado Aug 6, 2024 desde Taiyuan Satellite Launch Center

Loading…

Próximos Pases (próximas 24 horas)

TLE

ActualizadoSource: Space-Track

Época: Sep 14, 2026, 10:00 UTC

1 61336U 24140UZ  26257.41703589  .00002097  00000-0  11154-2 0  9991
2 61336  88.8523 253.3928 0103584 307.4497  51.7297 14.10458268104300

Sigue CZ-6A DEB en tiempo real con AllMySat

Download on the App Store